Regional Weather Roundup
Issued by NWS

Home | Current Version | Previous Version | Text Only | Print | Product List | Glossary Off
Versions: 1 2 3 4 5 6 7 8 9 10 11 12 13 14 15 16 17 18 19 20 21 22 23 24 25 26 27 28 29 30 31 32 33 34 35 36 37 38 39 40 41 42 43 44 45 46 47 48 49 50

000
ASUS43 KDTX 041810
RWRMI
MICHIGAN HOURLY REGIONAL WEATHER ROUNDUP
NATIONAL WEATHER SERVICE DETROIT/PONTIAC MI
200 PM EDT WED MAY 04 2016

NOTE: "FAIR" INDICATES FEW OR NO CLOUDS BELOW 12,000 FEET WITH NO
SIGNIFICANT WEATHER AND/OR OBSTRUCTION TO VISIBILITY.

MIZ047>049-052>055-059>063-066>070-074>076-081>083-041900-
SOUTHEAST LOWER MICHIGAN

CITY           SKY/WX    TMP DP  RH WIND       PRES   REMARKS
ADRIAN         LGT RAIN  51  47  86 W12       29.56S
6HR MIN TEMP:  50; 6HR MAX TEMP:  57; 6HR PCP: TRACE;

ALMA           CLOUDY    47  46  94 N15G26    29.57F
ANN ARBOR      LGT RAIN  56  49  77 SE12G21   29.53F
BAD AXE        MOSUNNY   61  47  61 SE12G21   29.59F
CARO           CLOUDY    54  49  83 CALM      29.55S
DETROIT        LGT RAIN  53  46  77 VRB7G25   29.57F
6HR MIN TEMP:  51; 6HR MAX TEMP:  61; 6HR PCP:  0.05;

FLINT          HVY RAIN  54  45  71 S21G37    29.56R
6HR MIN TEMP:  55; 6HR MAX TEMP:  64; 6HR PCP:  0.01;

GROSSE ILE     CLOUDY    57  50  77 SE9       29.57F
HILLSDALE      CLOUDY    47  41  81 W17       29.57S
6HR MIN TEMP:  46; 6HR MAX TEMP:  52;

HOWELL         LGT RAIN  51  48  89 S3        29.54S

CITY           SKY/WX    TMP DP  RH WIND       PRES   REMARKS
JACKSON        CLOUDY    50  46  86 W15       29.55S
6HR MIN TEMP:  49; 6HR MAX TEMP:  54; 6HR PCP:  0.06;

LAMBERTVILLE   CLOUDY    55  50  85 S6        29.57R
6HR MIN TEMP:  52; 6HR MAX TEMP:  61;

LANSING        LGT RAIN  48  46  93 VRB6      29.56R FOG
6HR MIN TEMP:  48; 6HR MAX TEMP:  53; 6HR PCP:  0.20;

LAPEER         FAIR      61  43  51 S13G20    29.57S
6HR MIN TEMP:  51; 6HR MAX TEMP:  62;

MASON          CLOUDY    53  47  81 S9G22     29.54S
MONROE         CLOUDY    57  51  79 SE12G18   29.55F
6HR MIN TEMP:  51; 6HR MAX TEMP:  59; 6HR PCP:  0.01;

MT. CLEMENS    CLOUDY    58  49  74 SE16      29.59S
6HR MIN TEMP:  51; 6HR MAX TEMP:  58; 6HR PCP:  0.01;

PONTIAC        CLOUDY    58  45  62 S10G22    29.57R
6HR MIN TEMP:  49; 6HR MAX TEMP:  60; 6HR PCP:  0.04;

PORT HOPE        N/A     53  46  77 SE16      29.60S
6HR MIN TEMP:  48; 6HR MAX TEMP:  59;

PORT HURON     CLOUDY    63  43  48 SE13      29.61S
TRI CITIES     RAIN      51  46  83 NW9       29.59R
6HR MIN TEMP:  50; 6HR MAX TEMP:  57; 6HR PCP:  0.21;

MIDLAND        CLOUDY    52  46  80 N7        29.57S
6HR MIN TEMP:  48; 6HR MAX TEMP:  54;

TROY           CLOUDY    60  46  59 S9        29.59S
SAGINAW HB     LGT RAIN  54  46  76 NW13      29.57R
$$
MIZ043>046-050>051-056>058-064>065-071>073-077>080-041900-
SOUTHWEST LOWER MICHIGAN

CITY           SKY/WX    TMP DP  RH WIND       PRES   REMARKS
BATTLE CREEK   LGT RAIN  45  41  86 NW20G29   29.61R
6HR MIN TEMP:  45; 6HR MAX TEMP:  50;

BENTON HARBOR  CLOUDY    43  37  79 N9G32     29.72R
6HR MIN TEMP:  43; 6HR MAX TEMP:  44; 6HR PCP: TRACE;

BIG RAPIDS     LGT RAIN  42  38  86 N17G24    29.64F
6HR MIN TEMP:  42; 6HR MAX TEMP:  46; 6HR PCP:  0.35;

COLDWATER      CLOUDY    47  41  80 NW14G23   29.61R
6HR MIN TEMP:  46; 6HR MAX TEMP:  51;

FREMONT        LGT RAIN  43  42  95 N20G25    29.66S
HOLLAND        LGT RAIN N/A N/A N/A NW15G29   29.67S
                                      6HR PCP:  0.13;

GRAND RAPIDS   RAIN      45  40  82 N17G28    29.62S
6HR MIN TEMP:  45; 6HR MAX TEMP:  49; 6HR PCP:  0.57;

IONIA          LGT RAIN  44  43  96 N13       29.57F
6HR MIN TEMP:  44; 6HR MAX TEMP:  48; 6HR PCP:  0.45;

KALAMAZOO      LGT RAIN  45  40  82 NW14      29.63S
6HR MIN TEMP:  45; 6HR MAX TEMP:  50; 6HR PCP:  0.26;

LUDINGTON      LGT RAIN  40  37  87 N24G30    29.74S WCI  30
6HR MIN TEMP:  40; 6HR MAX TEMP:  41;

MARSHALL       CLOUDY    46  44  93 W14       29.58R FOG
6HR MIN TEMP:  46; 6HR MAX TEMP:  52; 6HR PCP:  0.08;

MUSKEGON       LGT RAIN  44  38  79 N22G31    29.70R
6HR MIN TEMP:  43; 6HR MAX TEMP:  46; 6HR PCP:  0.04;

SOUTH HAVEN    CLOUDY    42  38  87 N21G32    29.70R
$$
MIZ016>042-041900-
NORTHERN LOWER MICHIGAN

CITY           SKY/WX    TMP DP  RH WIND       PRES   REMARKS
ALPENA         CLOUDY    47  43  86 N13       29.68S
6HR MIN TEMP:  45; 6HR MAX TEMP:  48; 6HR PCP:  0.11;

BEAVER ISLAND  CLOUDY    47  37  68 N10G22    29.76S
6HR MIN TEMP:  40; 6HR MAX TEMP:  47;

BELLAIRE       LGT RAIN  43  40  87 N8G16     29.73S
6HR MIN TEMP:  42; 6HR MAX TEMP:  43;

CADILLAC       MIX PCPN  40  38  93 N12G23    29.69R WCI  33
CHARLEVOIX     CLOUDY    42  39  89 N10       29.78R
FRANKFORT      CLOUDY    42  35  78 N12G22    29.77R
GAYLORD        LGT RAIN  45  42  89 N7        29.69S FOG
6HR MIN TEMP:  43; 6HR MAX TEMP:  46; 6HR PCP:  0.41;

GRAYLING       MIX PCPN  45  43  93 N8        29.69R
HARBOR SPRINGS DRIZZLE   45  42  88 N9        29.73R
HOUGHTON LAKE  LGT RAIN  44  41  89 N15G24    29.66R
6HR MIN TEMP:  44; 6HR MAX TEMP:  46; 6HR PCP:  0.54;

MANISTEE       CLOUDY    41  34  75 N22G29    29.75S
OSCODA         CLOUDY    53  41  64 NE12      29.63S
6HR MIN TEMP:  46; 6HR MAX TEMP:  55;

PELLSTON       LGT RAIN  47  40  76 N12       29.74R
6HR MIN TEMP:  43; 6HR MAX TEMP:  47; 6HR PCP:  0.15;

ROGERS CITY    MIX PCPN  43  42  95 N10       29.71S
TRAVERSE CITY  LGT RAIN  42  36  79 N12       29.73R
6HR MIN TEMP:  41; 6HR MAX TEMP:  43; 6HR PCP:  0.11;

$$
MIZ007>008-015-041900-
EASTERN UPPER MICHIGAN

CITY           SKY/WX    TMP DP  RH WIND       PRES   REMARKS
KINROSS          N/A     46  37  71 NW17G23   29.73R
6HR MIN TEMP:  43; 6HR MAX TEMP:  46;

MACKINAC ISLAN CLOUDY    47  39  74 N10G20    29.73R
6HR MIN TEMP:  41; 6HR MAX TEMP:  47; 6HR PCP:  0.01;

NEWBERRY       PTSUNNY   44  34  66 N16G26    29.78S
6HR MIN TEMP:  38; 6HR MAX TEMP:  45;

S. S. MARIE    CLOUDY    52  38  58 VRB6      29.73R
6HR MIN TEMP:  45; 6HR MAX TEMP:  52;

MUNISING         N/A     39  32  76 N22G29    29.87R WCI  29
6HR MIN TEMP:  39; 6HR MAX TEMP:  40;

$$
MIZ004>006-011>014-085-041900-
CENTRAL UPPER MICHIGAN

CITY           SKY/WX    TMP DP  RH WIND       PRES   REMARKS
MANISTIQUE     CLOUDY    46  32  58 N22G30    29.79S
6HR MIN TEMP:  39; 6HR MAX TEMP:  47;

ESCANABA       CLOUDY    45  30  57 N17G26    29.84R
6HR MIN TEMP:  39; 6HR MAX TEMP:  45;

MENOMINEE      CLOUDY    48  34  57 N18       29.83S
6HR MIN TEMP:  41; 6HR MAX TEMP:  48;

SAWYER-GWINN   CLOUDY    36  32  87 N18G26    29.88R WCI  25
$$
MIZ001>003-009>011-084-041900-
WESTERN UPPER MICHIGAN

CITY           SKY/WX    TMP DP  RH WIND       PRES   REMARKS
IRON MOUNTAIN  CLOUDY    45  32  60 N21G31    29.85S
6HR MIN TEMP:  39; 6HR MAX TEMP:  47;

HOUGHTON       CLOUDY    41  30  65 N17G30    29.93R
6HR MIN TEMP:  36; 6HR MAX TEMP:  43;

COPPER HARBOR    N/A     39  33  79 N16       29.94R WCI  30
6HR MIN TEMP:  38; 6HR MAX TEMP:  39;

IRONWOOD         N/A     45  32  61 N16       29.95S
6HR MIN TEMP:  39; 6HR MAX TEMP:  45;

$$

ABBREVIATIONS USED IN REMARKS
   TC - TEMPERATURE IN CELSIUS
  WCI - WIND CHILL INDEX
   HX - HEAT INDEX
  VSB - VISIBILITY




USA.gov is the U.S. government's official web portal to all federal, state and local government web resources and services.